Hickory, NC

6:44 AM EST on February 07, 2016 (GMT -0500)
Hickory Regional

Weather History for KHKY - January, 2012

Change the Weather History Date:

Wednesday, January 25, 2012

  Actual Average Record
Temperature  
Mean Temperature 48 °F -  
Max Temperature 60 °F 50 °F 75 °F (1949)
Min Temperature 35 °F 31 °F 9 °F (1963)
Degree Days  
Heating Degree Days 18    
Moisture  
Dew Point 34 °F    
Average Humidity 62    
Maximum Humidity 85    
Minimum Humidity 36    
Precipitation  
Precipitation 0.00 in - - ()
Sea Level Pressure  
Sea Level Pressure 30.21 in    
Wind  
Wind Speed 2 mph (NW)    
Max Wind Speed 5 mph    
Max Gust Speed -    
Visibility 10 miles    
Events      
Averages and records for this station are not official NWS values.
T = Trace of Precipitation, MM = Missing Value Source: NWS Daily Summary

Daily Weather History Graph

Daily Weather History Graph

Search for Another Location

Airport or City:

Trip Planner

Search our weather history database for the weather conditions in past years. The results will help you decide how hot, cold, wet, or windy it might be!

Date:

Astronomy

Jan. 25, 2012 Rise Set
Actual Time 7:30 AM EST 5:45 PM EST
Civil Twilight 7:03 AM EST 6:12 PM EST
Nautical Twilight 6:32 AM EST 6:43 PM EST
Astronomical Twilight 6:02 AM EST 7:13 PM EST
Moon 8:36 AM EST (1/25) 8:29 PM EST (1/25)
Length of Visible Light 11h 08m
Length of Day
10h 14m
Waxing Crescent, 6% of the Moon is Illuminated
Jan 25
Waxing Crescent
Jan 30
First Quarter
Feb 7
Full
Feb 14
Last Quarter
Feb 21
New

Hourly Weather History & Observations

Time (EST) Temp. Windchill Dew Point Humidity Pressure Visibility Wind Dir Wind Speed Gust Speed Precip Events Conditions
12:53 AM 39.0 °F - 33.1 °F 79% 30.20 in 10.0 mi Calm Calm - N/A   Clear
1:53 AM 41.0 °F 38.0 °F 30.9 °F 67% 30.19 in 10.0 mi NNW 4.6 mph - N/A   Clear
2:53 AM 37.0 °F - 32.0 °F 82% 30.22 in 10.0 mi Calm Calm - N/A   Clear
3:53 AM 39.0 °F - 30.9 °F 73% 30.22 in 10.0 mi Calm Calm - N/A   Clear
4:53 AM 35.1 °F - 30.9 °F 85% 30.22 in 10.0 mi Calm Calm - N/A   Clear
5:53 AM 36.0 °F 33.3 °F 30.9 °F 82% 30.23 in 10.0 mi North 3.5 mph - N/A   Clear
6:53 AM 35.1 °F - 30.9 °F 85% 30.26 in 10.0 mi Calm Calm - N/A   Clear
7:53 AM 35.1 °F 32.2 °F 30.9 °F 85% 30.27 in 10.0 mi WNW 3.5 mph - N/A   Clear
8:53 AM 41.0 °F 39.0 °F 33.1 °F 73% 30.28 in 10.0 mi NW 3.5 mph - N/A   Clear
9:53 AM 45.0 °F - 36.0 °F 71% 30.30 in 10.0 mi Calm Calm - N/A   Clear
10:53 AM 51.1 °F - 36.0 °F 56% 30.30 in 10.0 mi Variable 3.5 mph - N/A   Clear
11:53 AM 55.9 °F - 33.1 °F 42% 30.27 in 10.0 mi East 3.5 mph - N/A   Clear
12:53 PM 60.1 °F - 33.1 °F 36% 30.23 in 10.0 mi Variable 3.5 mph - N/A   Clear
1:53 PM 59.0 °F - 33.8 °F 39% 30.23 in 10.0 mi Variable 3.5 mph - N/A   Clear
2:53 PM 60.1 °F - 33.1 °F 36% 30.18 in 10.0 mi Calm Calm - N/A   Clear
3:53 PM 60.1 °F - 36.0 °F 41% 30.16 in 10.0 mi Variable 3.5 mph - N/A   Clear
4:53 PM 60.1 °F - 35.1 °F 39% 30.16 in 10.0 mi Variable 3.5 mph - N/A   Clear
5:53 PM 55.9 °F - 36.0 °F 47% 30.17 in 10.0 mi South 3.5 mph - N/A   Clear
6:53 PM 51.1 °F - 37.0 °F 59% 30.18 in 10.0 mi South 4.6 mph - N/A   Clear
7:53 PM 53.1 °F - 37.0 °F 55% 30.17 in 10.0 mi Calm Calm - N/A   Overcast
8:53 PM 52.0 °F - 39.0 °F 61% 30.16 in 10.0 mi Calm Calm - N/A   Overcast
9:53 PM 53.6 °F - 37.4 °F 54% 30.18 in 10.0 mi Calm Calm - N/A   Overcast
10:53 PM 50.0 °F - 39.0 °F 66% 30.15 in 10.0 mi Calm Calm - N/A   Overcast
11:53 PM 50.0 °F - 39.0 °F 66% 30.14 in 10.0 mi Calm Calm - N/A   Overcast